Precipitable_Water
0.59 0.53 0.48 0.45 0.41 0.41 0.42 0.43 0.47 0.46 0.46 0.40 0.38 0.35 0.34 0.32 0.29 0.28 0.28 0.26 0.27 0.27
0.49 0.45 0.44 0.43 0.42 0.41 0.43 0.45 0.50 0.51 0.47 0.44 0.42 0.41 0.36 0.31 0.30 0.30 0.27 0.27 0.28 0.27
0.46 0.46 0.45 0.45 0.40 0.42 0.44 0.46 0.43 0.44 0.47 0.46 0.42 0.36 0.33 0.29 0.28 0.26 0.25 0.25 0.24 0.23
0.40 0.40 0.37 0.37 0.39 0.43 0.47 0.48 0.47 0.47 0.44 0.43 0.35 0.33 0.30 0.27 0.26 0.23 0.22 0.23 0.24 0.24
0.32 0.32 0.32 0.34 0.37 0.42 0.40 0.39 0.40 0.41 0.42 0.37 0.32 0.30 0.29 0.27 0.26 0.23 0.22 0.24 0.25 0.24
0.30 0.27 0.26 0.26 0.27 0.29 0.30 0.33 0.38 0.41 0.38 0.31 0.30 0.31 0.30 0.26 0.24 0.25 0.25 0.26 0.25 0.22
0.28 0.27 0.28 0.29 0.29 0.29 0.33 0.39 0.39 0.39 0.36 0.32 0.34 0.31 0.28 0.25 0.26 0.26 0.26 0.24 0.22 0.21
0.28 0.30 0.30 0.29 0.30 0.33 0.36 0.42 0.44 0.36 0.35 0.37 0.32 0.31 0.26 0.27 0.26 0.24 0.22 0.23 0.22 0.23
0.28 0.30 0.30 0.31 0.31 0.33 0.36 0.38 0.35 0.39 0.34 0.31 0.31 0.30 0.28 0.27 0.25 0.24 0.22 0.21 0.22 0.23
0.30 0.30 0.30 0.31 0.31 0.31 0.33 0.36 0.37 0.32 0.31 0.31 0.30 0.27 0.26 0.26 0.24 0.21 0.20 0.20 0.21 0.22
0.30 0.28 0.30 0.30 0.30 0.32 0.34 0.35 0.33 0.32 0.32 0.31 0.26 0.24 0.23 0.23 0.20 0.19 0.18 0.20 0.22 0.24
0.28 0.29 0.30 0.28 0.29 0.33 0.32 0.31 0.32 0.32 0.31 0.25 0.21 0.20 0.21 0.20 0.19 0.18 0.18 0.22 0.24 0.25
0.29 0.28 0.27 0.28 0.29 0.30 0.32 0.33 0.33 0.29 0.25 0.22 0.19 0.20 0.19 0.19 0.18 0.17 0.19 0.22 0.24 0.25
0.28 0.28 0.28 0.27 0.29 0.30 0.31 0.29 0.25 0.24 0.23 0.21 0.20 0.19 0.19 0.19 0.18 0.18 0.19 0.22 0.23 0.25
Wind_Speed
36 39 41 43 46 48 50 50 49 50 50 51 51 51 50 50 49 49 48 46 44 45
40 42 44 46 48 50 50 49 49 50 51 51 52 51 49 48 47 45 44 42 40 39
42 44 46 48 51 51 50 50 50 52 52 50 50 47 45 44 43 42 40 37 36 34
44 46 49 51 53 52 51 51 52 51 51 49 46 44 43 42 40 38 37 36 34 35
45 48 51 52 52 50 51 53 52 52 51 47 43 41 39 38 36 36 35 34 35 37
48 50 51 51 52 53 53 52 50 49 46 39 37 35 35 35 34 33 34 35 37 39
49 50 51 52 54 54 52 50 47 43 37 32 32 31 31 29 32 34 35 38 39 39
50 50 52 54 54 52 49 46 41 36 30 29 27 28 29 31 34 35 37 38 39 38
50 51 53 54 53 50 46 41 35 29 27 24 26 28 30 34 34 36 37 38 38 37
50 52 53 53 50 46 39 32 27 25 24 25 26 29 32 33 34 36 36 37 36 34
51 52 53 51 46 40 34 29 25 24 25 25 26 30 31 32 34 35 36 35 31 31
52 53 51 47 42 36 30 26 23 24 25 24 27 29 31 32 33 34 34 30 29 28
52 51 48 44 36 30 26 24 23 23 23 24 26 29 30 32 32 32 31 28 26 26
49 48 44 38 32 27 23 21 22 23 23 24 25 27 29 31 31 30 29 26 24 25
Wind_Direction
308 308 308 308 308 308 308 307 305 305 305 305 305 305 304 304 304 304 303 301 299 301
311 310 310 310 310 310 309 308 307 307 307 305 305 304 304 305 305 305 305 302 300 302
312 312 311 311 311 310 309 307 307 307 305 304 305 304 304 306 306 305 305 303 302 301
315 314 314 313 313 311 309 308 308 307 307 305 303 303 303 305 306 307 306 304 302 301
317 317 317 316 314 311 310 308 308 307 306 304 301 303 304 306 306 307 307 305 304 303
318 317 318 319 317 314 312 310 309 308 307 303 303 304 305 306 307 308 308 307 306 305
318 319 319 320 319 317 314 312 310 309 308 304 306 308 310 311 311 311 310 309 309 307
319 319 319 320 320 318 316 313 310 310 307 307 308 311 312 313 313 313 312 312 311 309
319 320 320 320 320 319 317 315 310 308 308 308 310 312 314 316 315 316 315 315 314 313
320 320 320 320 319 319 318 317 314 311 310 311 312 315 316 318 319 319 319 318 317 316
319 319 320 320 319 318 316 313 310 310 312 312 314 318 319 321 322 322 322 321 321 321
319 319 320 319 317 315 313 311 310 311 313 313 317 321 322 324 325 325 326 325 325 326
319 320 320 319 316 314 312 309 310 313 314 315 319 323 325 327 328 329 329 328 328 330
319 321 320 319 314 312 311 311 312 314 315 317 321 325 328 331 331 332 332 330 330 333